Location: Krakow
(50.0830°N, 19.9170°E)
Time: 06:48:25
(UTC+02:00)

Tiros 1 despin weight - Pass Details

Date: 19 March 2026
Orbit: 555 x 592 km, 48.2° (Epoch: 18 April)

Event Time Altitude Azimuth Distance (km) Brightness Sun altitude
Rises 09:15:50 0° 278° (W) 2,799 ? 29.9°
Reaches altitude 10° 09:18:42 10° 259° (W) 1,889 ? 30.2°
Maximum altitude 09:21:35 18° 217° (SW) 1,449 ? 30.5°
Drops below altitude 10° 09:24:27 10° 175° (S) 1,866 ? 30.9°
Sets 09:27:17 0° 156° (SSE) 2,751 ? 31.2°
